Regional Weather Roundup
Issued by NWS Northern Indiana

Home | Current Version | Previous Version | Text Only | Print | Product List | Glossary On
Versions: 1 2 3 4 5 6 7 8 9 10 11 12 13 14 15 16 17 18 19 20 21 22 23 24 25 26 27 28 29 30 31 32 33 34 35 36 37 38 39 40 41 42 43 44 45 46 47 48 49 50
072
ASUS43 KIWX 300110
RWRIWX

KIWX WEATHER ROUNDUP
NATIONAL WEATHER SERVICE NORTHERN INDIANA
900 PM EDT THU SEP 29 2016

NOTE: "FAIR" INDICATES FEW OR NO CLOUDS BELOW 12,000 FEET WITH NO
SIGNIFICANT WEATHER AND/OR OBSTRUCTIONS TO VISIBILITY.

* THESE STATIONS ARE NOT UNDER NWS QUALITY CONTROL. THEY ALSO MAY NOT
  REPORT WEATHER SUCH AS PRECIPITATION OR FOG.

INZ001>027-300200-
NORTHERN INDIANA

CITY           SKY/WX    TMP DP  RH WIND       PRES   REMARKS
GARY*          CLOUDY    64  59  82 NE14      30.21R
VALPARAISO     CLOUDY    62  57  83 N7        30.19R
MICHIGAN CITY* DRIZZLE   61  57  88 CALM      30.20S
LAPORTE*       CLOUDY    63  63 100 NE10      30.19S
KNOX*          CLOUDY    63  41  45 NE9       30.17R
SOUTH BEND     MOCLDY    60  57  89 NE14      30.20R
ELKHART*       LGT RAIN  59  57  94 N8        30.18S
GOSHEN         LGT RAIN  60  57  89 N14       30.16F
MONTICELLO*    CLOUDY    64  48  56 NE3       30.13R
LOGANSPORT*    CLOUDY    63  52  67 CALM      30.14R
ROCHESTER*     RAIN      63  61  94 NE6       30.16R
WARSAW*        LGT RAIN  61  61 100 N9        30.15S
ANGOLA*          N/A     61  48  63 NE7       30.15S
FORT WAYNE     LGT RAIN  61  59  93 N7G17     30.13S FOG
HUNTINGTON*    LGT RAIN  60  58  95 NE5       30.13S
PERU/GRISSOM   DRIZZLE   62  56  81 NE7       30.12R
MARION*        MOCLDY    59  56  87 NE5       30.13S FOG

$$
INZ028>050-300200-
CENTRAL INDIANA

CITY           SKY/WX    TMP DP  RH WIND       PRES   REMARKS
LAFAYETTE      CLOUDY    61  53  75 N3        30.12R
KOKOMO*        LGT RAIN  62  56  80 NE6       30.13S
MUNCIE*        CLOUDY    61  57  87 NE7       30.10S
INDIANAPOLIS   CLOUDY    64  52  64 N6        30.09S

$$
MIZ043>046-050>051-056>058-064>065-071>073-077>080-300200-
SOUTHWEST LOWER MICHIGAN

CITY           SKY/WX    TMP DP  RH WIND       PRES   REMARKS
BATTLE CREEK   CLOUDY    59  58  96 NE10      30.20F
BENTON HARBOR  CLOUDY    61  55  81 NE9       30.21R
COLDWATER*     LGT RAIN  59  59  99 N9        30.17S
HILLSDALE*     HVY RAIN  59  57  94 N8        30.16S
HOLLAND        LGT RAIN  61  55  81 NE10      30.24R
GRAND RAPIDS   LGT RAIN  58  55  90 NE13      30.25R
KALAMAZOO      LGT RAIN  59  56  89 NE9       30.21S
STURGIS*       CLOUDY    59  57  92 NE9       30.16F
THREE RIVERS*  LGT RAIN  60  58  95 NE6       30.18F

$$
OHZ001>008-015>018-024>025-300200-
NORTHWEST OHIO

CITY           SKY/WX    TMP DP  RH WIND       PRES   REMARKS
WAUSEON*       CLOUDY    61  59  94 NE9G16    30.14S FOG
DEFIANCE       CLOUDY    62  58  86 N15G21    30.12S
FINDLAY        CLOUDY    60  56  86 E5        30.11R
TOLEDO EXPRESS CLOUDY    60  60 100 NE10      30.13R
TOLEDO METCALF CLOUDY    63  62  97 NE5       30.13R
LIMA           CLOUDY    60  59  96 N5        30.11R

$$
AND FOR LAKE MICHIGAN COASTAL AND OPEN LAKE BUOY OBSERVATIONS

STATION/POSITION TEMP    WIND        PRES    VSBY  WAVE
                 AIR SEA DIR/SP/G                  HT/PER
                 (F)     (DEG/KT/KT) (MB)    (MI)  (FT/S)
CALUMET HARBOR    63      30/ 15/ 20 1022.5R
MICHIGAN CITY     61      20/ 21/ 23   N/A
BURNS HARBOR      63      40/ 20/ 23 1022.7R
SAINT JOSEPH      61      30/  6/ 11 1023.0
SOUTH LAKE BUOY   64 68   70/ 23/ 27 1023.2R         6/ 5
4 MI NW BRIDGMAN  60 61   40/ 10/ 14 1022.8          5/ 6
MICHIGAN CITY     62 65   40/ 17/ 21   N/A           7/ 7

$$
&&




USA.gov is the U.S. government's official web portal to all federal, state and local government web resources and services.